Location: Clinton NY
(43.0598°N, 75.3602°W)
Time: 20:26:09
(UTC-04:00)

Amateur Radio Satellites - All Passes

Search period start: 30 August 2016 19:56
Search period end: 31 August 2016 19:56
Location: Clinton NY, 43.0598°N, 75.3602°W

Satellite Date Start Highest point End Downlink Frequencies (MHz)
Time Altitude Azimuth
BEESAT 2 30 Aug 19:57:51 19:59:29 12° 251° (WSW) 20:01:07 435.950
CUBESAT XI-V 30 Aug 19:58:18 20:00:20 13° 300° (WNW) 20:02:23 437.345
YUBILEINY 30 Aug 20:01:48 20:06:01 15° 286° (WNW) 20:10:14 435.215
Cosmos 2504 30 Aug 20:03:18 20:09:27 31° 275° (W) 20:15:34 435.465 / 435.565
HO-68 30 Aug 20:05:44 20:12:56 89° 244° (WSW) 20:20:11 435.675
Oscar 11 30 Aug 20:20:13 20:23:14 19° 65° (ENE) 20:26:17 145.826/435.025
SEEDS 30 Aug 20:21:00 20:25:09 83° 75° (ENE) 20:29:20 437.485
AIST 1 30 Aug 20:27:03 20:31:29 87° 83° (E) 20:35:52
FUNcube-1 30 Aug 20:31:47 20:35:16 24° 67° (ENE) 20:38:42 145.935
AAUSAT CUBESAT 2 30 Aug 20:42:24 20:46:29 78° 77° (ENE) 20:50:38 437.432
UWE-3 30 Aug 20:47:14 20:51:41 56° 74° (ENE) 20:56:02 435.000/436.395/437.385
DOVE 4 30 Aug 20:49:10 20:50:49 11° 274° (W) 20:52:28 437.250
CANX-2 30 Aug 20:50:11 20:53:49 28° 264° (W) 20:57:29 2200.000
PCSat 30 Aug 20:50:14 20:55:41 81° 242° (WSW) 21:01:06 145.827
COMPASS 1 30 Aug 20:53:57 20:58:01 60° 260° (W) 21:02:07 437.405
ZACube-1 30 Aug 20:54:23 20:58:34 43° 72° (ENE) 21:02:40 437.345
CUTE 1.7 + AOD 2 30 Aug 20:55:35 20:59:14 29° 265° (W) 21:02:54 437.475
CUBEBUG 2 30 Aug 20:56:35 21:01:14 79° 258° (WSW) 21:05:48 437.445
AIST 2 30 Aug 20:57:55 21:02:05 66° 239° (WSW) 21:06:13 435.215
STRAND 1 30 Aug 20:59:18 21:04:16 53° 289° (WNW) 21:09:13 437.568
CINEMA 3 30 Aug 21:02:26 21:06:26 24° 267° (W) 21:10:23 145.822/145.860
HUMSAT D 30 Aug 21:13:05 21:15:19 14° 64° (ENE) 21:17:32 437.325/437.525
PRISM 30 Aug 21:19:29 21:23:14 31° 97° (E) 21:26:58 437.425
O/OREOS (USA 219) 30 Aug 21:43:17 21:43:53 10° 46° (NE) 21:44:29 437.305
DELFI C3 30 Aug 21:52:27 21:56:21 77° 77° (ENE) 22:00:20 145.870
Oscar 11 30 Aug 21:55:01 21:59:05 41° 262° (W) 22:03:10 145.826/435.025
HO-68 30 Aug 21:57:21 22:01:34 16° 271° (W) 22:05:49 435.675
SO-50 30 Aug 21:57:25 21:59:34 13° 108° (ESE) 22:01:43 436.795
FUNcube-1 30 Aug 22:07:21 22:11:21 33° 263° (W) 22:15:17 145.935
ANTELSAT 30 Aug 22:12:38 22:14:33 13° 90° (E) 22:16:27 437.575/2403.000
GONETS M04 30 Aug 22:17:48 22:25:58 39° 71° (ENE) 22:34:05
AUBIESAT-1 30 Aug 22:20:37 22:24:35 29° 63° (ENE) 22:28:31 437.475
UWE-3 30 Aug 22:25:56 22:28:27 15° 269° (W) 22:30:56 435.000/436.395/437.385
CUSAT 1 30 Aug 22:27:20 22:28:28 11° 81° (E) 22:29:41 437.405
M-CUBED/EXP-1 PRIME 30 Aug 22:28:50 22:33:15 41° 65° (ENE) 22:37:38 437.505
ZACube-1 30 Aug 22:31:57 22:35:01 18° 267° (W) 22:38:03 437.345
PCSat 30 Aug 22:36:56 22:38:10 11° 259° (W) 22:39:24 145.827
TIGRISAT 30 Aug 22:41:15 22:44:47 25° 95° (E) 22:48:16 435.000
AISAT 30 Aug 22:42:39 22:45:06 15° 62° (ENE) 22:47:35 437.250
HUMSAT D 30 Aug 22:46:28 22:50:31 53° 260° (W) 22:54:33 437.325/437.525
ESTCUBE 1 30 Aug 22:47:18 22:51:03 27° 67° (ENE) 22:54:50 437.505/2401.250
PRISM 30 Aug 22:55:02 22:58:23 24° 294° (WNW) 23:01:43 437.425
Cosmos 2499 30 Aug 22:56:25 23:03:12 47° 75° (ENE) 23:10:04 435.465 / 435.565
UNISAT 6 30 Aug 23:10:35 23:14:48 56° 100° (E) 23:18:58 437.425
50 SAT 30 Aug 23:18:36 23:21:34 25° 69° (ENE) 23:24:33 437.505
O/OREOS (USA 219) 30 Aug 23:19:32 23:24:10 73° 66° (ENE) 23:28:44 437.305
CUBEBUG 1 30 Aug 23:20:30 23:24:34 38° 70° (ENE) 23:28:41 437.445
SPROUT 30 Aug 23:23:00 23:25:53 18° 64° (ENE) 23:28:46 437.525
VELOX 1 30 Aug 23:27:38 23:31:45 38° 70° (ENE) 23:35:53 145.980
DX 1 30 Aug 23:33:17 23:37:05 30° 68° (ENE) 23:40:55 434.975-435.025
SO-50 30 Aug 23:34:31 23:39:24 83° 303° (WNW) 23:44:15 436.795
DUCHIFAT 1 30 Aug 23:36:27 23:38:24 13° 90° (E) 23:40:21 145.980
QB50P2 30 Aug 23:43:22 23:46:25 19° 93° (E) 23:49:27 145.880/145.840
POLYITAN 1 30 Aug 23:45:52 23:48:55 19° 93° (E) 23:51:57 437.675
ANTELSAT 30 Aug 23:47:27 23:51:40 57° 287° (WNW) 23:55:50 437.575/2403.000
RS-15 30 Aug 23:48:59 23:58:06 28° 101° (ESE) 00:07:30 29.354- 29.394
NANOSAT C BR1 30 Aug 23:51:02 23:54:12 20° 94° (E) 23:57:21 145.865
AUBIESAT-1 30 Aug 23:54:42 23:58:53 34° 258° (WSW) 00:03:05 437.475
DANDE 30 Aug 23:55:37 23:58:01 31° 93° (E) 00:00:43 436.750
M-CUBED/EXP-1 PRIME 31 Aug 00:04:03 00:07:49 24° 261° (W) 00:11:36 437.505
UKube-1 31 Aug 00:06:29 00:10:40 52° 72° (ENE) 00:14:54 .
CUSAT 1 31 Aug 00:06:51 00:09:47 33° 289° (WNW) 00:13:28 437.405
JAS-2 31 Aug 00:12:02 00:18:04 30° 94° (E) 00:24:31 435.910
GONETS M04 31 Aug 00:14:35 00:22:57 49° 272° (W) 00:31:18
BUGSAT 1 31 Aug 00:16:37 00:19:02 15° 91° (E) 00:21:26 437.445
AISAT 31 Aug 00:16:39 00:21:04 62° 258° (WSW) 00:25:32 437.250
TIGRISAT 31 Aug 00:17:46 00:21:28 29° 292° (WNW) 00:25:09 435.000
ESTCUBE 1 31 Aug 00:23:48 00:27:45 30° 264° (W) 00:31:45 437.505/2401.250
PHONESAT 2.4 31 Aug 00:34:00 00:36:07 18° 155° (SSE) 00:38:15 2401.200-2431.200
QB50P1 31 Aug 00:36:27 00:40:41 70° 103° (ESE) 00:44:51 145.935-145.965
POPSAT HIP 1 31 Aug 00:46:50 00:51:04 90° 150° (SSE) 00:55:16 437.405
UNISAT 6 31 Aug 00:48:43 00:51:03 15° 298° (WNW) 00:53:23 437.425
Cosmos 2499 31 Aug 00:50:02 00:56:00 31° 274° (W) 01:02:03 435.465 / 435.565
50 SAT 31 Aug 00:52:23 00:55:07 21° 265° (W) 00:57:52 437.505
SPROUT 31 Aug 00:57:20 01:01:28 46° 261° (W) 01:05:39 437.525
CUBEBUG 1 31 Aug 00:57:39 01:00:59 21° 267° (W) 01:04:20 437.445
O/OREOS (USA 219) 31 Aug 01:01:17 01:02:54 12° 263° (W) 01:04:32 437.305
BEESAT 31 Aug 01:01:32 01:02:23 10° 57° (ENE) 01:03:14 436.000
TISAT 1 31 Aug 01:03:18 01:07:21 45° 72° (ENE) 01:11:25 437.305
VELOX 1 31 Aug 01:04:55 01:08:19 21° 266° (W) 01:11:45 145.980
DX 1 31 Aug 01:09:34 01:13:15 26° 264° (W) 01:16:57 434.975-435.025
DUCHIFAT 1 31 Aug 01:10:20 01:14:27 55° 287° (WNW) 01:18:30 145.980
SO-50 31 Aug 01:17:36 01:20:36 16° 324° (NW) 01:23:37 436.795
QB50P2 31 Aug 01:18:27 01:22:22 37° 290° (WNW) 01:26:14 145.880/145.840
POLYITAN 1 31 Aug 01:20:58 01:24:51 37° 290° (WNW) 01:28:42 437.675
NANOSAT C BR1 31 Aug 01:26:11 01:30:01 35° 290° (WNW) 01:33:49 145.865
Oscar 19 31 Aug 01:30:08 01:33:57 20° 92° (E) 01:37:44 437.125/150
UKube-1 31 Aug 01:44:33 01:47:01 15° 269° (W) 01:49:30 .
ITUPSAT 1 31 Aug 01:47:44 01:51:46 28° 66° (ENE) 01:55:49 437.325
BUGSAT 1 31 Aug 01:50:43 01:54:40 45° 288° (WNW) 01:58:32 437.445
JAS-2 31 Aug 01:56:32 02:03:18 59° 289° (WNW) 02:10:44 435.910
RS-15 31 Aug 01:57:28 02:09:05 84° 304° (NW) 02:21:23 29.354- 29.394
PHONESAT 2.4 31 Aug 02:09:11 02:12:05 44° 171° (S) 02:14:57 2401.200-2431.200
QB50P1 31 Aug 02:14:20 02:15:53 12° 299° (WNW) 02:17:25 145.935-145.965
SWISSCUBE 31 Aug 02:17:59 02:22:40 62° 73° (ENE) 02:27:22 437.505
BEESAT 31 Aug 02:34:37 02:39:22 82° 76° (ENE) 02:44:09 436.000
TISAT 1 31 Aug 02:40:30 02:43:13 17° 268° (W) 02:45:57 437.305
ITAMSAT 1 31 Aug 02:52:43 02:55:53 16° 91° (E) 02:59:02 435.822/435.867
Oscar 19 31 Aug 03:08:30 03:13:34 52° 289° (WNW) 03:18:35 437.125/150
Gurwin Techsat 1B 31 Aug 03:08:42 03:14:02 76° 103° (ESE) 03:19:20 435.225
KKS-1 31 Aug 03:20:52 03:24:43 29° 67° (ENE) 03:28:34 437.445
ITUPSAT 1 31 Aug 03:25:14 03:29:30 33° 263° (W) 03:33:47 437.325
AO-85 31 Aug 03:35:52 03:38:23 14° 108° (ESE) 03:40:51 145.980
JAS-2 31 Aug 03:44:37 03:47:09 12° 307° (NW) 03:49:44 435.910
PHONESAT 2.4 31 Aug 03:45:19 03:48:13 45° 188° (S) 03:51:06 2401.200-2431.200
STARS 31 Aug 03:46:44 03:50:26 26° 67° (ENE) 03:54:08 437.465
AO-7 31 Aug 03:48:17 03:55:23 30° 95° (E) 04:02:23 29.400- 29.500
CUBESAT XI-V 31 Aug 03:50:17 03:50:50 10° 58° (ENE) 03:51:23 437.345
MOZHAYETS 4 31 Aug 03:52:42 03:57:15 76° 74° (ENE) 04:01:48
Cosmos 2491 31 Aug 03:54:38 04:01:35 25° 64° (ENE) 04:08:30 435.465 / 435.565
SWISSCUBE 31 Aug 03:58:16 04:00:53 15° 269° (W) 04:03:29 437.505
RS-15 31 Aug 04:13:09 04:23:40 34° 333° (NNW) 04:34:36 29.354- 29.394
BEESAT 31 Aug 04:16:36 04:17:45 11° 272° (W) 04:18:54 436.000
ITAMSAT 1 31 Aug 04:30:40 04:35:48 65° 288° (WNW) 04:40:56 435.822/435.867
Gurwin Techsat 1B 31 Aug 04:50:11 04:53:21 16° 301° (WNW) 04:56:30 435.225
KKS-1 31 Aug 04:57:19 05:01:13 29° 264° (W) 05:05:08 437.445
YUBILEINY 31 Aug 05:09:18 05:16:15 27° 81° (E) 05:23:11 435.215
AO-85 31 Aug 05:12:57 05:18:16 88° 306° (NW) 05:23:17 145.980
PHONESAT 2.4 31 Aug 05:22:00 05:24:11 18° 204° (SSW) 05:26:19 2401.200-2431.200
STARS 31 Aug 05:22:44 05:26:40 31° 263° (W) 05:30:38 437.465
CUBESAT XI-V 31 Aug 05:22:49 05:27:25 85° 76° (ENE) 05:32:05 437.345
MOZHAYETS 4 31 Aug 05:33:48 05:34:57 11° 272° (W) 05:36:06
AO-7 31 Aug 05:40:26 05:48:37 63° 294° (WNW) 05:56:45 29.400- 29.500
NOAA 15 31 Aug 05:49:37 05:51:43 12° 88° (E) 05:53:48 137.62
Cosmos 2491 31 Aug 05:50:33 05:59:23 77° 265° (W) 06:08:12 435.465 / 435.565
CUTE-I 31 Aug 06:00:47 06:02:52 12° 88° (E) 06:04:57 437.470
HORYU 2 31 Aug 06:08:43 06:13:09 72° 103° (ESE) 06:17:32 437.375
LilacSat-2 31 Aug 06:09:06 06:09:35 10° 89° (E) 06:10:04 437.200
BRITE-PL 31 Aug 06:23:46 06:29:20 50° 98° (E) 06:34:40 437.365/2234.400
SO-50 31 Aug 06:25:41 06:28:59 19° 38° (NE) 06:32:13 436.795
RS-15 31 Aug 06:31:25 06:41:14 27° 8° (N) 06:51:09 29.354- 29.394
STRAND 1 31 Aug 06:37:41 06:42:08 31° 66° (ENE) 06:46:35 437.568
Cosmos 2504 31 Aug 06:48:21 06:55:56 41° 88° (E) 07:03:03 435.465 / 435.565
AO-85 31 Aug 06:55:56 06:59:23 18° 322° (NW) 07:02:42 145.980
YUBILEINY 31 Aug 07:03:28 07:12:15 69° 281° (W) 07:21:05 435.215
DOVE 4 31 Aug 07:06:20 07:10:23 25° 92° (E) 07:14:14 437.250
NOAA 18 31 Aug 07:10:54 07:16:11 47° 100° (E) 07:21:25 137.9125
GOMX 1 31 Aug 07:18:26 07:23:49 73° 101° (ESE) 07:28:53 467.674
NOAA 15 31 Aug 07:26:48 07:32:09 86° 286° (WNW) 07:37:28 137.62
ISS 31 Aug 07:27:18 07:30:15 31° 138° (SE) 07:33:12 145.825
Cubesat XI-IV 31 Aug 07:27:38 07:32:59 77° 103° (ESE) 07:38:18 437.490
HO-68 31 Aug 07:34:23 07:38:33 16° 88° (E) 07:42:41 435.675
AO-7 31 Aug 07:35:16 07:39:48 16° 316° (NW) 07:44:19 29.400- 29.500
CUTE-I 31 Aug 07:38:15 07:43:36 85° 284° (WNW) 07:48:54 437.470
LilacSat-2 31 Aug 07:40:32 07:44:14 56° 286° (WNW) 07:47:55 437.200
HORYU 2 31 Aug 07:47:12 07:49:06 13° 300° (WNW) 07:51:00 437.375
Cosmos 2491 31 Aug 07:50:10 07:54:39 15° 286° (WNW) 07:59:08 435.465 / 435.565
BRITE-PL 31 Aug 08:02:49 08:07:25 26° 296° (WNW) 08:11:55 437.365/2234.400
SO-50 31 Aug 08:05:23 08:09:59 72° 238° (WSW) 08:14:26 436.795
SEEDS 31 Aug 08:05:34 08:07:31 13° 90° (E) 08:09:27 437.485
PRISM 31 Aug 08:09:56 08:13:20 26° 67° (ENE) 08:16:46 437.425
STRAND 1 31 Aug 08:16:40 08:21:14 33° 263° (W) 08:25:50 437.568
BEESAT 3 31 Aug 08:21:46 08:24:40 20° 112° (ESE) 08:27:36 437.485
AAUSAT CUBESAT 2 31 Aug 08:25:49 08:27:13 11° 89° (E) 08:28:36 437.432
CANX-2 31 Aug 08:33:29 08:37:33 43° 98° (E) 08:41:36 2200.000
COMPASS 1 31 Aug 08:36:25 08:39:29 20° 93° (E) 08:42:34 437.405
CUTE 1.7 + AOD 2 31 Aug 08:38:48 08:42:51 42° 98° (E) 08:46:54 437.475
Cosmos 2504 31 Aug 08:41:26 08:49:14 43° 286° (WNW) 08:56:34 435.465 / 435.565
DOVE 4 31 Aug 08:43:35 08:48:12 38° 291° (WNW) 08:52:32 437.250
RS-15 31 Aug 08:45:58 08:57:50 48° 40° (NE) 09:09:35 29.354- 29.394
CUBEBUG 2 31 Aug 08:47:33 08:50:33 19° 92° (E) 08:53:29 437.445
NOAA 18 31 Aug 08:52:08 08:56:33 26° 297° (WNW) 09:00:57 137.9125
CUSAT 1 31 Aug 08:54:14 08:59:39 25° 68° (ENE) 09:05:43 437.405
CINEMA 3 31 Aug 08:55:22 08:59:52 86° 99° (E) 09:04:09 145.822/145.860
AIST 1 31 Aug 08:57:02 09:01:13 48° 93° (E) 09:05:27
GOMX 1 31 Aug 08:57:53 09:01:12 17° 300° (WNW) 09:04:24 467.674
ISS 31 Aug 09:03:32 09:06:40 39° 336° (NNW) 09:09:47 145.825
YUBILEINY 31 Aug 09:06:24 09:10:58 15° 304° (NW) 09:15:33 435.215
NOAA 15 31 Aug 09:08:46 09:11:07 13° 303° (WNW) 09:13:26 137.62
Cubesat XI-IV 31 Aug 09:09:18 09:12:24 16° 301° (WNW) 09:15:30 437.490
ANTELSAT 31 Aug 09:12:18 09:14:52 15° 63° (ENE) 09:17:25 437.575/2403.000
HO-68 31 Aug 09:19:58 09:27:11 89° 103° (ESE) 09:34:21 435.675
CUTE-I 31 Aug 09:20:33 09:22:49 13° 303° (WNW) 09:25:05 437.470
SEEDS 31 Aug 09:39:25 09:43:33 56° 286° (WNW) 09:47:41 437.485
TIGRISAT 31 Aug 09:40:37 09:44:26 27° 68° (ENE) 09:48:10 435.000
Oscar 11 31 Aug 09:41:08 09:45:00 31° 96° (E) 09:48:52 145.826/435.025
PRISM 31 Aug 09:45:03 09:48:33 27° 264° (W) 09:52:07 437.425
BEESAT 2 31 Aug 09:48:04 09:52:00 89° 128° (SE) 09:56:00 435.950
FUNcube-1 31 Aug 09:54:00 09:57:55 39° 98° (E) 10:01:47 145.935
PCSat 31 Aug 09:54:39 09:55:23 10° 101° (E) 09:56:08 145.827
BEESAT 3 31 Aug 09:58:25 10:02:05 38° 310° (NW) 10:05:48 437.485
AAUSAT CUBESAT 2 31 Aug 09:58:57 10:03:05 62° 285° (WNW) 10:07:13 437.432
UNISAT 6 31 Aug 10:09:50 10:14:18 56° 73° (ENE) 10:18:41 437.425
CANX-2 31 Aug 10:10:12 10:13:06 18° 295° (WNW) 10:15:59 2200.000
COMPASS 1 31 Aug 10:11:18 10:15:09 36° 289° (WNW) 10:18:59 437.405
UWE-3 31 Aug 10:12:15 10:16:26 74° 284° (WNW) 10:20:33 435.000/436.395/437.385
CUTE 1.7 + AOD 2 31 Aug 10:15:29 10:18:23 18° 295° (WNW) 10:21:17 437.475
ZACube-1 31 Aug 10:17:38 10:21:48 80° 102° (ESE) 10:25:56 437.345
CUBEBUG 2 31 Aug 10:23:27 10:27:20 37° 289° (WNW) 10:31:08 437.445
DANDE 31 Aug 10:27:56 10:33:29 47° 77° (ENE) 10:40:33 436.750
HUMSAT D 31 Aug 10:29:19 10:32:28 21° 94° (E) 10:35:37 437.325/437.525
DUCHIFAT 1 31 Aug 10:29:54 10:31:38 12° 61° (ENE) 10:33:23 145.980
JAS-2 31 Aug 10:30:37 10:31:47 11° 52° (NE) 10:32:59 435.910
CUSAT 1 31 Aug 10:35:17 10:42:03 72° 263° (W) 10:49:55 437.405
CINEMA 3 31 Aug 10:35:31 10:36:14 10° 301° (WNW) 10:36:55 145.822/145.860
AIST 1 31 Aug 10:36:24 10:39:07 16° 291° (WNW) 10:41:50
QB50P2 31 Aug 10:37:14 10:40:05 18° 64° (ENE) 10:42:57 145.880/145.840
POLYITAN 1 31 Aug 10:39:42 10:42:35 18° 65° (ENE) 10:45:28 437.675
ISS 31 Aug 10:41:22 10:43:46 18° 355° (N) 10:46:10 145.825
NANOSAT C BR1 31 Aug 10:44:21 10:47:19 19° 65° (ENE) 10:50:17 145.865
ANTELSAT 31 Aug 10:46:36 10:51:07 61° 259° (W) 10:55:34 437.575/2403.000
AIST 2 31 Aug 10:57:08 11:00:06 20° 112° (ESE) 11:03:05 435.215
RS-15 31 Aug 10:58:51 11:10:57 64° 245° (WSW) 11:22:49 29.354- 29.394
DELFI C3 31 Aug 11:03:36 11:07:38 72° 284° (WNW) 11:11:37 145.870
BUGSAT 1 31 Aug 11:07:45 11:09:55 14° 62° (ENE) 11:12:06 437.445
HO-68 31 Aug 11:09:06 11:14:00 20° 306° (NW) 11:18:53 435.675
TIGRISAT 31 Aug 11:16:56 11:21:00 31° 264° (W) 11:25:01 435.000
Oscar 11 31 Aug 11:17:31 11:21:00 24° 293° (WNW) 11:24:29 145.826/435.025
GONETS M04 31 Aug 11:20:06 11:28:09 43° 87° (E) 11:36:15
BEESAT 2 31 Aug 11:28:27 11:30:25 13° 322° (NW) 11:32:24 435.950
QB50P1 31 Aug 11:29:23 11:33:34 58° 74° (ENE) 11:37:47 145.935-145.965
FUNcube-1 31 Aug 11:31:02 11:33:53 18° 295° (WNW) 11:36:43 145.935
PCSat 31 Aug 11:32:25 11:37:50 79° 118° (ESE) 11:43:16 145.827
Cosmos 2499 31 Aug 11:33:57 11:41:11 39° 88° (E) 11:47:58 435.465 / 435.565
AUBIESAT-1 31 Aug 11:34:13 11:36:11 14° 95° (E) 11:38:05 437.475
POPSAT HIP 1 31 Aug 11:39:44 11:44:00 75° 75° (ENE) 11:48:16 437.405
M-CUBED/EXP-1 PRIME 31 Aug 11:42:40 11:45:45 22° 98° (E) 11:48:41 437.505
UNISAT 6 31 Aug 11:48:44 11:51:19 15° 269° (W) 11:53:53 437.425
DUCHIFAT 1 31 Aug 12:02:32 12:06:46 69° 257° (WSW) 12:11:01 145.980
HUMSAT D 31 Aug 12:04:29 12:08:08 32° 290° (WNW) 12:11:48 437.325/437.525
AO-85 31 Aug 12:05:06 12:07:45 15° 36° (NE) 12:10:16 145.980
AISAT 31 Aug 12:06:25 12:09:57 23° 94° (E) 12:13:28 437.250
JAS-2 31 Aug 12:10:27 12:15:40 72° 73° (ENE) 12:21:22 435.910
DANDE 31 Aug 12:11:01 12:16:10 31° 268° (W) 12:22:24 436.750
QB50P2 31 Aug 12:11:27 12:15:33 45° 261° (W) 12:19:40 145.880/145.840
POLYITAN 1 31 Aug 12:13:58 12:18:03 44° 261° (W) 12:22:10 437.675
ESTCUBE 1 31 Aug 12:14:34 12:19:00 50° 100° (E) 12:23:25 437.505/2401.250
ISS 31 Aug 12:18:17 12:21:02 24° 15° (NNE) 12:23:47 145.825
NANOSAT C BR1 31 Aug 12:18:42 12:22:44 42° 261° (W) 12:26:48 145.865
50 SAT 31 Aug 12:18:50 12:21:58 26° 96° (E) 12:25:06 437.505
CUSAT 1 31 Aug 12:20:03 12:23:16 14° 278° (W) 12:26:39 437.405
AIST 2 31 Aug 12:34:22 12:38:17 42° 309° (NW) 12:42:15 435.215
BUGSAT 1 31 Aug 12:40:37 12:44:48 60° 259° (W) 12:49:01 437.445
SPROUT 31 Aug 12:42:29 12:46:08 27° 95° (E) 12:49:45 437.525
CUBEBUG 1 31 Aug 12:43:51 12:48:18 68° 102° (ESE) 12:52:40 437.445
Oscar 19 31 Aug 12:47:36 12:52:10 33° 67° (ENE) 12:56:46 437.125/150
VELOX 1 31 Aug 12:52:39 12:57:08 67° 102° (ESE) 13:01:32 145.980
Gurwin Techsat 1B 31 Aug 12:53:04 12:56:40 19° 61° (ENE) 13:00:16 435.225
DX 1 31 Aug 12:55:55 13:00:11 47° 100° (E) 13:04:24 434.975-435.025
AO-7 31 Aug 13:02:40 13:05:09 12° 39° (NE) 13:07:39 29.400- 29.500
AUBIESAT-1 31 Aug 13:07:11 13:10:59 45° 294° (WNW) 13:14:31 437.475
QB50P1 31 Aug 13:07:44 13:09:43 13° 270° (W) 13:11:42 145.935-145.965
RS-15 31 Aug 13:15:28 13:20:45 14° 267° (W) 13:26:01 29.354- 29.394
GONETS M04 31 Aug 13:16:38 13:24:54 45° 287° (WNW) 13:33:17
M-CUBED/EXP-1 PRIME 31 Aug 13:16:48 13:20:21 30° 298° (WNW) 13:23:39 437.505
PCSat 31 Aug 13:17:54 13:21:52 20° 318° (NW) 13:25:50 145.827
Cosmos 2499 31 Aug 13:26:44 13:34:12 42° 286° (WNW) 13:41:14 435.465 / 435.565
UKube-1 31 Aug 13:28:19 13:32:40 84° 101° (E) 13:37:00 .
O/OREOS (USA 219) 31 Aug 13:32:34 13:37:01 71° 111° (ESE) 13:41:33 437.305
AISAT 31 Aug 13:42:26 13:46:30 35° 291° (WNW) 13:50:32 437.250
AO-85 31 Aug 13:44:32 13:48:49 80° 238° (WSW) 13:52:47 145.980
ESTCUBE 1 31 Aug 13:52:22 13:55:26 18° 297° (WNW) 13:58:29 437.505/2401.250
50 SAT 31 Aug 13:52:38 13:55:24 21° 292° (WNW) 13:58:10 437.505
ISS 31 Aug 13:54:32 13:57:50 85° 215° (SW) 14:01:06 145.825
JAS-2 31 Aug 13:58:48 14:01:34 14° 273° (W) 14:04:28 435.910
ITAMSAT 1 31 Aug 14:11:11 14:15:33 28° 65° (ENE) 14:19:55 435.822/435.867
SPROUT 31 Aug 14:18:23 14:22:01 28° 292° (WNW) 14:25:38 437.525
SWISSCUBE 31 Aug 14:18:37 14:21:16 15° 91° (E) 14:23:53 437.505
TISAT 1 31 Aug 14:21:32 14:25:44 71° 101° (ESE) 14:29:54 437.305
CUBEBUG 1 31 Aug 14:21:53 14:24:00 13° 299° (WNW) 14:26:08 437.445
Oscar 19 31 Aug 14:26:49 14:31:26 33° 264° (W) 14:36:06 437.125/150
VELOX 1 31 Aug 14:30:47 14:33:02 14° 299° (WNW) 14:35:16 145.980
Gurwin Techsat 1B 31 Aug 14:30:50 14:36:06 64° 258° (WSW) 14:41:24 435.225
DX 1 31 Aug 14:33:04 14:35:59 18° 297° (WNW) 14:38:55 434.975-435.025
BEESAT 31 Aug 14:34:39 14:38:02 19° 93° (E) 14:41:26 436.000
AO-7 31 Aug 14:48:02 14:55:51 47° 61° (ENE) 15:03:40 29.400- 29.500
UKube-1 31 Aug 15:07:04 15:08:03 11° 301° (WNW) 15:09:00 .
O/OREOS (USA 219) 31 Aug 15:14:27 15:16:58 15° 310° (NW) 15:19:32 437.305
YUBILEINY 31 Aug 15:18:25 15:22:24 14° 54° (NE) 15:26:23 435.215
ITUPSAT 1 31 Aug 15:24:00 15:28:44 58° 101° (E) 15:33:26 437.325
ISS 31 Aug 15:33:00 15:33:48 11° 230° (SW) 15:34:35 145.825
MOZHAYETS 4 31 Aug 15:47:49 15:50:45 17° 91° (E) 15:53:41
ITAMSAT 1 31 Aug 15:50:03 15:54:51 38° 262° (W) 15:59:41 435.822/435.867
SWISSCUBE 31 Aug 15:54:45 15:59:28 63° 287° (WNW) 16:04:10 437.505
TISAT 1 31 Aug 15:59:19 16:00:48 12° 299° (WNW) 16:02:17 437.305
BEESAT 31 Aug 16:11:30 16:16:05 47° 289° (WNW) 16:20:38 436.000
BEESAT 2 31 Aug 16:29:21 16:30:34 11° 35° (NE) 16:31:48 435.950
BEESAT 3 31 Aug 16:37:26 16:40:24 20° 43° (NE) 16:43:22 437.485
AO-7 31 Aug 16:40:48 16:48:38 43° 261° (W) 16:56:30 29.400- 29.500
Cosmos 2504 31 Aug 16:41:36 16:44:31 13° 58° (ENE) 16:47:24 435.465 / 435.565
KKS-1 31 Aug 16:46:34 16:50:54 48° 100° (E) 16:55:11 437.445
GOMX 1 31 Aug 16:52:15 16:54:29 13° 57° (ENE) 16:56:45 467.674
Cosmos 2491 31 Aug 16:58:16 17:05:02 26° 81° (E) 17:11:51 435.465 / 435.565
NOAA 18 31 Aug 17:00:35 17:03:43 16° 57° (ENE) 17:06:50 137.9125
ITUPSAT 1 31 Aug 17:03:00 17:06:06 17° 298° (WNW) 17:09:12 437.325
HORYU 2 31 Aug 17:07:17 17:11:44 75° 74° (ENE) 17:16:11 437.375
NOAA 15 31 Aug 17:09:39 17:13:44 23° 63° (ENE) 17:17:52 137.62
STARS 31 Aug 17:10:36 17:14:48 42° 99° (E) 17:18:57 437.465
YUBILEINY 31 Aug 17:12:32 17:21:16 65° 78° (ENE) 17:29:52 435.215
Cubesat XI-IV 31 Aug 17:12:39 17:16:25 20° 61° (ENE) 17:20:11 437.490
CUBESAT XI-V 31 Aug 17:19:08 17:22:37 20° 92° (E) 17:26:04 437.345
CUTE-I 31 Aug 17:22:34 17:26:46 24° 63° (ENE) 17:30:57 437.470
MOZHAYETS 4 31 Aug 17:23:46 17:28:12 51° 288° (WNW) 17:32:39
BRITE-PL 31 Aug 17:34:59 17:39:54 58° 72° (ENE) 17:45:13 437.365/2234.400
BEESAT 2 31 Aug 18:05:08 18:09:09 70° 55° (NE) 18:13:08 435.950
HO-68 31 Aug 18:05:34 18:09:32 16° 51° (NE) 18:13:31 435.675
DOVE 4 31 Aug 18:11:44 18:16:16 30° 67° (ENE) 18:20:51 437.250
BEESAT 3 31 Aug 18:14:28 18:18:18 47° 241° (WSW) 18:22:06 437.485
LilacSat-2 31 Aug 18:22:53 18:26:42 77° 78° (ENE) 18:30:31 437.200
CINEMA 3 31 Aug 18:23:41 18:25:23 12° 60° (ENE) 18:27:06 145.822/145.860
KKS-1 31 Aug 18:24:05 18:27:05 18° 297° (WNW) 18:30:05 437.445
GOMX 1 31 Aug 18:26:24 18:31:37 82° 75° (ENE) 18:37:06 467.674
Cosmos 2504 31 Aug 18:32:09 18:39:22 73° 80° (E) 18:46:33 435.465 / 435.565
PCSat 31 Aug 18:37:15 18:40:30 16° 38° (NE) 18:43:45 145.827
NOAA 18 31 Aug 18:38:06 18:43:39 85° 256° (WSW) 18:49:12 137.9125
STARS 31 Aug 18:47:42 18:50:51 20° 296° (WNW) 18:53:59 437.465
HORYU 2 31 Aug 18:47:45 18:48:47 11° 271° (W) 18:49:49 437.375
NOAA 15 31 Aug 18:48:07 18:53:11 49° 260° (W) 18:58:19 137.62
Cubesat XI-IV 31 Aug 18:50:45 18:56:01 60° 259° (WSW) 19:01:19 437.490
Cosmos 2491 31 Aug 18:52:23 19:01:03 69° 281° (W) 19:09:51 435.465 / 435.565
CUBESAT XI-V 31 Aug 18:55:42 19:00:11 44° 289° (WNW) 19:04:39 437.345
SEEDS 31 Aug 18:59:33 19:00:38 11° 61° (ENE) 19:01:42 437.485
CUTE-I 31 Aug 19:01:22 19:06:30 48° 261° (W) 19:11:39 437.470
AIST 1 31 Aug 19:04:18 19:06:40 14° 68° (ENE) 19:09:02
YUBILEINY 31 Aug 19:10:19 19:17:22 28° 278° (W) 19:24:23 435.215
BRITE-PL 31 Aug 19:15:21 19:18:50 18° 272° (W) 19:22:29 437.365/2234.400
AIST 2 31 Aug 19:16:42 19:19:57 21° 43° (NE) 19:23:12 435.215
CANX-2 31 Aug 19:27:09 19:30:56 34° 70° (ENE) 19:34:45 2200.000
COMPASS 1 31 Aug 19:28:46 19:31:15 16° 64° (ENE) 19:33:45 437.405
CUTE 1.7 + AOD 2 31 Aug 19:32:21 19:36:08 33° 70° (ENE) 19:39:55 437.475
UWE-3 31 Aug 19:36:58 19:38:09 11° 61° (ENE) 19:39:20 435.000/436.395/437.385
BEESAT 2 31 Aug 19:45:12 19:46:24 11° 252° (WSW) 19:47:37 435.950
CUBEBUG 2 31 Aug 19:46:21 19:49:45 21° 66° (ENE) 19:53:06 437.445
